• In Russia
  • List of Countries
  • For 7 days
  • Water Temperature
  • Satellite Maps
  • Weather Map
  • Weather Widgets
  • user-avatar
    Login

    Hourly Weather Adelaide

    Today, 23 September, Sunday

    Time Temperature Precipitation Wind Pressure Humidity
    00:00 +11°C° 0 mm 3 mps 768 mmHg 84%
    01:00 +11°C° 0 mm 3 mps 768 mmHg 87%
    02:00 +11°C° 0 mm 3 mps 768 mmHg 90%
    03:00 +12°C° 0 mm 2 mps 768 mmHg 92%
    04:00 +12°C° 0 mm 2 mps 768 mmHg 93%
    05:00 +11°C° 0 mm 3 mps 769 mmHg 93%
    06:00 +11°C° 0 mm 3 mps 769 mmHg 93%
    07:00 +12°C° 0 mm 3 mps 769 mmHg 87%
    08:00 +14°C° 0 mm 3 mps 770 mmHg 81%
    09:00 +16°C° 0 mm 3 mps 770 mmHg 75%
    10:00 +17°C° 0 mm 4 mps 770 mmHg 69%
    11:00 +18°C° 0 mm 4 mps 770 mmHg 63%
    12:00 +19°C° 0 mm 4 mps 769 mmHg 57%
    13:00 +18°C° 0 mm 4 mps 769 mmHg 56%
    14:00 +17°C° 0 mm 5 mps 769 mmHg 55%
    15:00 +17°C° 0 mm 5 mps 769 mmHg 54%
    16:00 +15°C° 0 mm 5 mps 769 mmHg 59%
    17:00 +13°C° 0 mm 5 mps 769 mmHg 64%
    18:00 +12°C° 0 mm 5 mps 770 mmHg 69%
    19:00 +10°C° 0 mm 5 mps 770 mmHg 73%
    20:00 +9°C° 0 mm 5 mps 770 mmHg 77%
    21:00 +8°C° 0 mm 5 mps 771 mmHg 81%
    22:00 +8°C° 0 mm 5 mps 771 mmHg 81%
    23:00 +7°C° 0 mm 5 mps 770 mmHg 80%

    Tomorrow, 24 September, Monday

    Time Temperature Precipitation Wind Pressure Humidity
    00:00 +7°C° 0 mm 4 mps 770 mmHg 80%
    01:00 +6°C° 0 mm 4 mps 770 mmHg 80%
    02:00 +6°C° 0 mm 4 mps 770 mmHg 80%
    03:00 +5°C° 0 mm 4 mps 770 mmHg 81%
    04:00 +5°C° 0 mm 4 mps 770 mmHg 81%
    05:00 +4°C° 0 mm 4 mps 770 mmHg 82%
    06:00 +4°C° 0 mm 4 mps 770 mmHg 82%
    07:00 +6°C° 0 mm 4 mps 770 mmHg 72%
    08:00 +10°C° 0 mm 4 mps 770 mmHg 62%
    09:00 +12°C° 0 mm 4 mps 770 mmHg 53%
    10:00 +13°C° 0 mm 4 mps 770 mmHg 48%
    11:00 +16°C° 0 mm 3 mps 770 mmHg 43%
    12:00 +17°C° 0 mm 3 mps 769 mmHg 37%
    13:00 +17°C° 0 mm 3 mps 769 mmHg 38%
    14:00 +18°C° 0 mm 4 mps 768 mmHg 39%
    15:00 +18°C° 0 mm 4 mps 767 mmHg 39%
    16:00 +15°C° 0 mm 4 mps 767 mmHg 47%
    17:00 +13°C° 0 mm 5 mps 768 mmHg 55%
    18:00 +12°C° 0 mm 5 mps 768 mmHg 62%
    19:00 +10°C° 0 mm 5 mps 768 mmHg 68%
    20:00 +9°C° 0 mm 5 mps 768 mmHg 73%
    21:00 +9°C° 0 mm 5 mps 769 mmHg 79%
    22:00 +8°C° 0 mm 5 mps 768 mmHg 80%
    23:00 +7°C° 0 mm 4 mps 768 mmHg 81%

    Day after tomorrow, 25 September, Tuesday

    Time Temperature Precipitation Wind Pressure Humidity
    00:00 +7°C° 0 mm 4 mps 768 mmHg 82%
    01:00 +7°C° 0 mm 4 mps 768 mmHg 82%
    02:00 +6°C° 0 mm 4 mps 767 mmHg 83%
    03:00 +7°C° 0 mm 3 mps 767 mmHg 84%
    04:00 +5°C° 0 mm 3 mps 767 mmHg 84%
    05:00 +5°C° 0 mm 3 mps 767 mmHg 84%
    06:00 +6°C° 0 mm 2 mps 767 mmHg 84%
    07:00 +9°C° 0 mm 3 mps 767 mmHg 73%
    08:00 +11°C° 0 mm 3 mps 767 mmHg 62%
    09:00 +14°C° 0 mm 3 mps 767 mmHg 52%
    10:00 +17°C° 0 mm 3 mps 767 mmHg 46%
    11:00 +18°C° 0 mm 2 mps 766 mmHg 40%
    12:00 +21°C° 0 mm 1 mps 766 mmHg 34%
    13:00 +20°C° 0 mm 2 mps 765 mmHg 34%
    14:00 +21°C° 0 mm 2 mps 764 mmHg 35%
    15:00 +21°C° 0 mm 2 mps 764 mmHg 36%
    16:00 +19°C° 0 mm 2 mps 764 mmHg 42%
    17:00 +17°C° 0 mm 3 mps 764 mmHg 48%
    18:00 +16°C° 0 mm 3 mps 764 mmHg 55%
    19:00 +14°C° 0 mm 3 mps 764 mmHg 58%
    20:00 +13°C° 0 mm 3 mps 764 mmHg 62%
    21:00 +12°C° 0 mm 3 mps 764 mmHg 66%
    22:00 +12°C° 0 mm 3 mps 763 mmHg 65%
    23:00 +11°C° 0 mm 3 mps 763 mmHg 65%

    26 September, Wednesday

    Time Temperature Precipitation Wind Pressure Humidity
    00:00 +11°C° 0 mm 3 mps 763 mmHg 64%
    01:00 +12°C° 0 mm 3 mps 762 mmHg 61%
    02:00 +12°C° 0 mm 3 mps 761 mmHg 57%
    03:00 +13°C° 0 mm 4 mps 761 mmHg 53%
    04:00 +12°C° 0 mm 4 mps 761 mmHg 53%
    05:00 +12°C° 0 mm 4 mps 761 mmHg 52%
    06:00 +12°C° 0 mm 4 mps 760 mmHg 52%
    07:00 +14°C° 0 mm 4 mps 760 mmHg 47%
    08:00 +17°C° 0 mm 4 mps 760 mmHg 43%
    09:00 +19°C° 0 mm 4 mps 760 mmHg 39%
    10:00 +19°C° 0.1 mm 4 mps 759 mmHg 44%
    11:00 +19°C° 0.1 mm 5 mps 759 mmHg 49%
    12:00 +19°C° 0.1 mm 5 mps 758 mmHg 54%
    13:00 +20°C° 0 mm 5 mps 757 mmHg 50%
    14:00 +21°C° 0 mm 5 mps 757 mmHg 46%
    15:00 +22°C° 0 mm 5 mps 756 mmHg 43%
    16:00 +21°C° 0 mm 4 mps 756 mmHg 46%
    17:00 +20°C° 0 mm 4 mps 756 mmHg 50%
    18:00 +18°C° 0 mm 4 mps 756 mmHg 54%
    19:00 +17°C° 0 mm 4 mps 757 mmHg 65%
    20:00 +15°C° 0 mm 4 mps 757 mmHg 75%
    21:00 +14°C° 0 mm 4 mps 757 mmHg 85%
    22:00 +13°C° 0 mm 4 mps 757 mmHg 87%
    23:00 +12°C° 0 mm 4 mps 757 mmHg 90%

    27 September, Thursday

    Time Temperature Precipitation Wind Pressure Humidity
    00:00 +12°C° 0 mm 4 mps 757 mmHg 92%
    01:00 +12°C° 0 mm 4 mps 757 mmHg 91%
    02:00 +12°C° 0 mm 4 mps 757 mmHg 90%
    03:00 +12°C° 0 mm 4 mps 757 mmHg 88%
    04:00 +12°C° 0.1 mm 4 mps 757 mmHg 87%
    05:00 +12°C° 0.1 mm 4 mps 758 mmHg 86%
    06:00 +12°C° 0.1 mm 4 mps 758 mmHg 85%
    07:00 +13°C° 0.1 mm 4 mps 758 mmHg 80%
    08:00 +13°C° 0.1 mm 5 mps 758 mmHg 75%
    09:00 +14°C° 0.1 mm 5 mps 758 mmHg 71%
    10:00 +15°C° 0 mm 6 mps 758 mmHg 67%
    11:00 +16°C° 0 mm 6 mps 758 mmHg 63%
    12:00 +16°C° 0 mm 6 mps 758 mmHg 59%
    13:00 +16°C° 0 mm 6 mps 758 mmHg 59%
    14:00 +16°C° 0 mm 6 mps 757 mmHg 60%
    15:00 +16°C° 0 mm 6 mps 757 mmHg 60%
    16:00 +14°C° 0 mm 5 mps 757 mmHg 65%
    17:00 +13°C° 0 mm 5 mps 758 mmHg 69%
    18:00 +12°C° 0 mm 4 mps 758 mmHg 74%
    19:00 +11°C° 0 mm 4 mps 758 mmHg 78%
    20:00 +11°C° 0 mm 4 mps 758 mmHg 81%
    21:00 +11°C° 0 mm 4 mps 759 mmHg 85%
    22:00 +10°C° 0 mm 3 mps 758 mmHg 86%
    23:00 +10°C° 0 mm 3 mps 758 mmHg 87%

    28 September, Friday

    Time Temperature Precipitation Wind Pressure Humidity
    00:00 +10°C° 0 mm 3 mps 758 mmHg 88%
    01:00 +10°C° 0.1 mm 3 mps 757 mmHg 88%
    02:00 +10°C° 0.1 mm 3 mps 757 mmHg 88%
    03:00 +9°C° 0.1 mm 3 mps 757 mmHg 88%
    04:00 +10°C° 0.1 mm 3 mps 757 mmHg 86%
    05:00 +10°C° 0.1 mm 3 mps 757 mmHg 84%
    06:00 +10°C° 0.1 mm 3 mps 757 mmHg 82%
    07:00 +11°C° 0.1 mm 4 mps 757 mmHg 75%
    08:00 +12°C° 0.1 mm 4 mps 758 mmHg 68%
    09:00 +13°C° 0.1 mm 5 mps 758 mmHg 61%
    10:00 +13°C° 0.5 mm 5 mps 757 mmHg 64%
    11:00 +13°C° 0.5 mm 5 mps 757 mmHg 67%
    12:00 +12°C° 0.5 mm 5 mps 757 mmHg 70%
    13:00 +12°C° 0.2 mm 4 mps 757 mmHg 70%
    14:00 +12°C° 0.2 mm 4 mps 757 mmHg 70%
    15:00 +11°C° 0.2 mm 3 mps 756 mmHg 70%
    16:00 +10°C° 0.3 mm 3 mps 757 mmHg 73%
    17:00 +10°C° 0.3 mm 3 mps 757 mmHg 77%
    18:00 +9°C° 0.3 mm 2 mps 758 mmHg 81%
    19:00 +9°C° 0.7 mm 2 mps 758 mmHg 83%
    20:00 +8°C° 0.7 mm 2 mps 758 mmHg 84%
    21:00 +8°C° 0.7 mm 2 mps 759 mmHg 86%
    22:00 +8°C° 0.8 mm 3 mps 759 mmHg 87%
    23:00 +7°C° 0.8 mm 3 mps 759 mmHg 87%
    Show more